Location: Bathurst
(33.4193°S, 149.5775°E)
Time: 09:06:03
(UTC+10:00)

Vanguard 1 Rocket - Pass Details

Date: 22 June 2021
Orbit: 650 x 4226 km, 34.3° (Epoch: 02 August)

Event Time Altitude Azimuth Distance (km) Brightness Sun altitude
Rises 13:55:42 0° 254° (WSW) 5,753 11.7 27.2°
Reaches altitude 10° 14:00:23 10° 258° (WSW) 4,157 11.1 26.7°
Maximum altitude 14:09:40 49° 329° (NNW) 1,405 9.9 25.7°
Drops below altitude 10° 14:14:59 10° 44° (NE) 2,411 9.8 25.1°
Sets 14:17:02 0° 50° (NE) 3,170 10.3 24.9°
